When you browse on this site, cookies collect data to enhance your experience and personalize the content and advertising you see.
Visit our Privacy Policy to learn more. By continuing to use the site, you agree to this use of cookies and data.
  • In Romania
  • List of Countries
  • For 7 days
  • Water Temperature
  • Satellite Maps
  • Weather Map
  • Weather Widgets
  • user-avatar
    Login

    Hourly Weather Perevalnyy

    Today, 20 November, Tuesday

    Time Temperature Precipitation Wind Pressure Humidity
    00:00 0°C° 0 mm 4 mps 729 mmHg 78%
    01:00 +1°C° 0 mm 3 mps 729 mmHg 77%
    02:00 +1°C° 0 mm 3 mps 729 mmHg 76%
    03:00 +1°C° 0 mm 3 mps 728 mmHg 76%
    04:00 +1°C° 0 mm 3 mps 728 mmHg 76%
    05:00 +1°C° 0 mm 3 mps 728 mmHg 77%
    06:00 +3°C° 0 mm 2 mps 728 mmHg 78%
    07:00 +3°C° 0.2 mm 2 mps 728 mmHg 79%
    08:00 +3°C° 0.2 mm 2 mps 728 mmHg 80%
    09:00 +4°C° 0.2 mm 1 mps 728 mmHg 80%
    10:00 +3°C° 0.7 mm 2 mps 728 mmHg 80%
    11:00 +4°C° 0.7 mm 2 mps 727 mmHg 80%
    12:00 +4°C° 0.7 mm 2 mps 727 mmHg 80%
    13:00 +4°C° 0.5 mm 2 mps 727 mmHg 80%
    14:00 +5°C° 0.5 mm 2 mps 727 mmHg 79%
    15:00 +5°C° 0.5 mm 2 mps 726 mmHg 79%
    16:00 +5°C° 0.2 mm 2 mps 726 mmHg 80%
    17:00 +6°C° 0.2 mm 1 mps 726 mmHg 80%
    18:00 +6°C° 0.2 mm 1 mps 726 mmHg 81%
    19:00 +7°C° 0.2 mm 1 mps 726 mmHg 82%
    20:00 +7°C° 0.2 mm 1 mps 726 mmHg 83%
    21:00 +6°C° 0.2 mm 2 mps 726 mmHg 84%
    22:00 +6°C° 0.1 mm 2 mps 727 mmHg 87%
    23:00 +6°C° 0.1 mm 2 mps 727 mmHg 90%

    Tomorrow, 21 November, Wednesday

    Time Temperature Precipitation Wind Pressure Humidity
    00:00 +5°C° 0.1 mm 3 mps 727 mmHg 93%
    01:00 +6°C° 0 mm 2 mps 727 mmHg 93%
    02:00 +6°C° 0 mm 2 mps 727 mmHg 93%
    03:00 +5°C° 0 mm 2 mps 728 mmHg 93%
    04:00 +5°C° 0 mm 2 mps 728 mmHg 93%
    05:00 +5°C° 0 mm 2 mps 728 mmHg 92%
    06:00 +5°C° 0 mm 2 mps 728 mmHg 92%
    07:00 +5°C° 0 mm 2 mps 728 mmHg 91%
    08:00 +6°C° 0 mm 2 mps 728 mmHg 90%
    09:00 +6°C° 0 mm 2 mps 728 mmHg 89%
    10:00 +6°C° 0 mm 2 mps 728 mmHg 85%
    11:00 +7°C° 0 mm 2 mps 727 mmHg 80%
    12:00 +7°C° 0 mm 2 mps 727 mmHg 76%
    13:00 +7°C° 0 mm 2 mps 727 mmHg 77%
    14:00 +7°C° 0 mm 2 mps 727 mmHg 79%
    15:00 +6°C° 0 mm 2 mps 726 mmHg 80%
    16:00 +6°C° 0 mm 2 mps 727 mmHg 83%
    17:00 +5°C° 0 mm 2 mps 727 mmHg 86%
    18:00 +5°C° 0 mm 2 mps 727 mmHg 89%
    19:00 +5°C° 0 mm 2 mps 727 mmHg 90%
    20:00 +4°C° 0 mm 2 mps 726 mmHg 90%
    21:00 +4°C° 0 mm 2 mps 726 mmHg 91%
    22:00 +4°C° 0 mm 2 mps 726 mmHg 91%
    23:00 +4°C° 0 mm 2 mps 726 mmHg 92%

    Day after tomorrow, 22 November, Thursday

    Time Temperature Precipitation Wind Pressure Humidity
    00:00 +4°C° 0 mm 2 mps 726 mmHg 92%
    01:00 +4°C° 0 mm 1 mps 726 mmHg 92%
    02:00 +4°C° 0 mm 1 mps 726 mmHg 92%
    03:00 +4°C° 0 mm 1 mps 726 mmHg 92%
    04:00 +4°C° 0 mm 1 mps 726 mmHg 92%
    05:00 +4°C° 0 mm 1 mps 726 mmHg 92%
    06:00 +4°C° 0 mm 1 mps 726 mmHg 92%
    07:00 +4°C° 0 mm 1 mps 726 mmHg 90%
    08:00 +4°C° 0 mm 1 mps 726 mmHg 89%
    09:00 +3°C° 0 mm 2 mps 726 mmHg 87%
    10:00 +4°C° 0 mm 2 mps 726 mmHg 85%
    11:00 +4°C° 0 mm 2 mps 726 mmHg 83%
    12:00 +4°C° 0 mm 2 mps 726 mmHg 81%
    13:00 +4°C° 0.1 mm 2 mps 726 mmHg 80%
    14:00 +4°C° 0.1 mm 2 mps 726 mmHg 80%
    15:00 +5°C° 0.1 mm 1 mps 726 mmHg 80%
    16:00 +5°C° 0 mm 1 mps 726 mmHg 81%
    17:00 +5°C° 0 mm 1 mps 726 mmHg 82%
    18:00 +5°C° 0 mm 1 mps 727 mmHg 83%
    19:00 +4°C° 0 mm 1 mps 727 mmHg 84%
    20:00 +4°C° 0 mm 1 mps 727 mmHg 85%
    21:00 +3°C° 0 mm 1 mps 727 mmHg 86%
    22:00 +3°C° 0 mm 1 mps 727 mmHg 87%
    23:00 +2°C° 0 mm 1 mps 727 mmHg 88%

    23 November, Friday

    Time Temperature Precipitation Wind Pressure Humidity
    00:00 +2°C° 0 mm 1 mps 727 mmHg 89%
    01:00 +2°C° 0 mm 1 mps 727 mmHg 89%
    02:00 +2°C° 0 mm 1 mps 727 mmHg 89%
    03:00 +1°C° 0 mm 1 mps 727 mmHg 89%
    04:00 +1°C° 0 mm 1 mps 727 mmHg 89%
    05:00 +1°C° 0 mm 2 mps 727 mmHg 89%
    06:00 +1°C° 0 mm 2 mps 728 mmHg 89%
    07:00 0°C° 0 mm 3 mps 728 mmHg 85%
    08:00 +1°C° 0 mm 3 mps 729 mmHg 81%
    09:00 0°C° 0 mm 4 mps 729 mmHg 78%
    10:00 +1°C° 0 mm 4 mps 729 mmHg 70%
    11:00 +3°C° 0 mm 4 mps 729 mmHg 62%
    12:00 +3°C° 0 mm 5 mps 729 mmHg 54%
    13:00 +3°C° 0 mm 5 mps 730 mmHg 53%
    14:00 +3°C° 0 mm 5 mps 730 mmHg 52%
    15:00 +4°C° 0 mm 4 mps 730 mmHg 50%
    16:00 +1°C° 0 mm 4 mps 731 mmHg 56%
    17:00 +1°C° 0 mm 3 mps 732 mmHg 61%
    18:00 +1°C° 0 mm 2 mps 733 mmHg 67%
    19:00 -1°C° 0 mm 2 mps 733 mmHg 69%
    20:00 +1°C° 0 mm 1 mps 734 mmHg 72%
    21:00 0°C° 0 mm 1 mps 734 mmHg 75%
    22:00 0°C° 0 mm 1 mps 734 mmHg 77%
    23:00 0°C° 0 mm 1 mps 735 mmHg 78%

    24 November, Saturday

    Time Temperature Precipitation Wind Pressure Humidity
    00:00 -3°C° 0 mm 2 mps 735 mmHg 80%
    01:00 -3°C° 0 mm 2 mps 735 mmHg 81%
    02:00 -3°C° 0 mm 2 mps 735 mmHg 81%
    03:00 -3°C° 0 mm 2 mps 735 mmHg 82%
    04:00 -3°C° 0 mm 2 mps 735 mmHg 82%
    05:00 -3°C° 0 mm 2 mps 735 mmHg 82%
    06:00 -3°C° 0 mm 2 mps 735 mmHg 82%
    07:00 -4°C° 0 mm 3 mps 735 mmHg 79%
    08:00 -2°C° 0 mm 3 mps 735 mmHg 76%
    09:00 -2°C° 0 mm 3 mps 735 mmHg 73%
    10:00 0°C° 0 mm 3 mps 735 mmHg 68%
    11:00 0°C° 0 mm 4 mps 735 mmHg 63%
    12:00 +1°C° 0 mm 4 mps 734 mmHg 58%
    13:00 +1°C° 0 mm 4 mps 734 mmHg 59%
    14:00 +1°C° 0 mm 4 mps 734 mmHg 60%
    15:00 +3°C° 0 mm 4 mps 733 mmHg 61%
    16:00 +1°C° 0 mm 3 mps 733 mmHg 67%
    17:00 0°C° 0 mm 3 mps 733 mmHg 72%
    18:00 -1°C° 0 mm 3 mps 733 mmHg 78%
    19:00 -1°C° 0 mm 3 mps 733 mmHg 77%
    20:00 -2°C° 0 mm 2 mps 733 mmHg 77%
    21:00 -2°C° 0 mm 2 mps 733 mmHg 76%
    22:00 -2°C° 0 mm 2 mps 733 mmHg 75%
    23:00 -2°C° 0 mm 2 mps 733 mmHg 74%

    25 November, Sunday

    Time Temperature Precipitation Wind Pressure Humidity
    00:00 0°C° 0 mm 1 mps 732 mmHg 72%
    01:00 +1°C° 0 mm 1 mps 732 mmHg 71%
    02:00 +1°C° 0 mm 1 mps 732 mmHg 70%
    03:00 +1°C° 0 mm 1 mps 731 mmHg 69%
    04:00 +1°C° 0 mm 1 mps 731 mmHg 68%
    05:00 +1°C° 0 mm 1 mps 731 mmHg 67%
    06:00 +1°C° 0 mm 1 mps 731 mmHg 65%
    07:00 +2°C° 0 mm 1 mps 730 mmHg 61%
    08:00 +2°C° 0 mm 0 mps 730 mmHg 57%
    09:00 +3°C° 0 mm 0 mps 730 mmHg 53%
    10:00 +6°C° 0 mm 1 mps 730 mmHg 48%
    11:00 +7°C° 0 mm 1 mps 730 mmHg 43%
    12:00 +9°C° 0 mm 1 mps 729 mmHg 38%
    13:00 +9°C° 0 mm 1 mps 729 mmHg 40%
    14:00 +8°C° 0 mm 0 mps 729 mmHg 42%
    15:00 +8°C° 0 mm 0 mps 729 mmHg 44%
    16:00 +6°C° 0 mm 0 mps 729 mmHg 46%
    17:00 +6°C° 0 mm 1 mps 729 mmHg 49%
    18:00 +5°C° 0 mm 1 mps 729 mmHg 52%
    19:00 +4°C° 0 mm 1 mps 729 mmHg 53%
    20:00 +4°C° 0 mm 1 mps 729 mmHg 53%
    21:00 +4°C° 0 mm 1 mps 728 mmHg 53%
    22:00 +4°C° 0 mm 1 mps 728 mmHg 54%
    23:00 +3°C° 0 mm 0 mps 728 mmHg 54%
    Show more